KQ4NAL Weather Reports


time (UTC)temp
C
wind
direction
speed
KPH
gust
KPH
rain 1hr
cm
rain 24hr
cm
rain mn
cm
humidity
%
barometer
mb
20260508220536 20 225 11.3 12.9 0.00 0.00 0.00 43 1010.5
20260508220032 20 11 8.0 11.3 0.00 0.00 0.00 43 1010.7
20260508215529 20 198 12.9 16.1 0.00 0.00 0.00 43 1010.6
20260508215026 20 296 3.2 3.2 0.00 0.00 0.00 46 1010.6
20260508214523 21 223 8.0 11.3 0.00 0.00 0.00 45 1010.7
20260508214019 21 295 3.2 4.8 0.00 0.00 0.00 42 1010.8
20260508213517 23 210 4.8 9.7 0.00 0.00 0.00 40 1010.5
20260508213012 22 339 3.2 3.2 0.00 0.00 0.00 41 1010.6
20260508212509 21 181 4.8 4.8 0.00 0.00 0.00 41 1010.7
20260508212006 21 236 6.4 14.5 0.00 0.00 0.00 41 1011.0
20260508211501 21 215 11.3 12.9 0.00 0.00 0.00 40 1011.0
20260508210958 21 290 8.0 12.9 0.00 0.00 0.00 42 1011.0
20260508210454 22 305 1.6 1.6 0.00 0.00 0.00 40 1010.9
20260508205951 21 180 12.9 14.5 0.00 0.00 0.00 41 1011.0
20260508205448 21 204 8.0 11.3 0.00 0.00 0.00 41 1011.0
20260508204944 21 175 8.0 9.7 0.00 0.00 0.00 45 1011.3
20260508204442 21 355 1.6 3.2 0.00 0.00 0.00 45 1011.4
20260508203937 21 234 4.8 8.0 0.00 0.00 0.00 42 1011.4
20260508203433 22 221 1.6 4.8 0.00 0.00 0.00 47 1011.3
20260508202929 21 323 4.8 4.8 0.00 0.00 0.00 42 1011.5
20260508202427 21 224 3.2 8.0 0.00 0.00 0.00 45 1011.5
20260508201924 21 301 8.0 9.7 0.00 0.00 0.00 41 1011.7
20260508201420 21 336 1.6 1.6 0.00 0.00 0.00 42 1011.7
20260508200917 21 221 4.8 8.0 0.00 0.00 0.00 45 1011.7
20260508200414 21 198 3.2 4.8 0.00 0.00 0.00 45 1011.7
20260508195909 21 325 3.2 4.8 0.00 0.00 0.00 43 1011.8
20260508195407 21 241 9.7 14.5 0.00 0.00 0.00 40 1011.9
20260508194902 21 217 4.8 12.9 0.00 0.00 0.00 43 1011.9
20260508194400 21 161 11.3 14.5 0.00 0.00 0.00 41 1011.9
20260508193857 21 8 1.6 1.6 0.00 0.00 0.00 40 1012.0
20260508193353 21 175 12.9 14.5 0.00 0.00 0.00 41 1012.2
20260508192850 22 213 6.4 8.0 0.00 0.00 0.00 41 1012.0
20260508192347 21 254 1.6 3.2 0.00 0.00 0.00 40 1012.0
20260508191844 21 239 8.0 11.3 0.00 0.00 0.00 40 1012.3
20260508191341 21 187 14.5 16.1 0.00 0.00 0.00 41 1012.3
20260508190838 21 324 3.2 4.8 0.00 0.00 0.00 41 1012.5
20260508190335 22 187 9.7 14.5 0.00 0.00 0.00 40 1012.1
20260508185831 21 179 8.0 11.3 0.00 0.00 0.00 43 1012.4
20260508185329 21 194 6.4 8.0 0.00 0.00 0.00 39 1012.6
20260508184826 21 216 9.7 14.5 0.00 0.00 0.00 41 1012.7
20260508184323 21 230 8.0 12.9 0.00 0.00 0.00 45 1013.0
20260508183820 21 168 11.3 12.9 0.00 0.00 0.00 41 1012.8
20260508183316 21 161 4.8 8.0 0.00 0.00 0.00 44 1013.1
20260508182812 21 129 8.0 9.7 0.00 0.00 0.00 40 1013.0
20260508182309 20 312 4.8 8.0 0.00 0.00 0.00 41 1013.3
20260508181805 21 201 20.9 25.7 0.00 0.00 0.00 39 1013.3
20260508181302 21 218 11.3 12.9 0.00 0.00 0.00 44 1013.3
20260508180759 21 224 3.2 3.2 0.00 0.00 0.00 44 1013.4
20260508180256 21 342 6.4 8.0 0.00 0.00 0.00 42 1013.4
20260508175752 20 175 6.4 9.7 0.00 0.00 0.00 45 1013.5
20260508175248 20 301 0.0 0.0 0.00 0.00 0.00 45 1013.6
20260508174747 21 338 3.2 4.8 0.00 0.00 0.00 45 1013.6
20260508174244 21 213 8.0 9.7 0.00 0.00 0.00 45 1013.6
20260508173740 20 74 4.8 8.0 0.00 0.00 0.00 42 1014.0
20260508173236 20 204 12.9 16.1 0.00 0.00 0.00 45 1014.1
20260508172733 19 349 4.8 4.8 0.00 0.00 0.00 44 1014.3
20260508172230 19 26 4.8 8.0 0.00 0.00 0.00 47 1014.0
20260508171727 19 194 11.3 16.1 0.00 0.00 0.00 46 1014.5
20260508171222 20 227 9.7 14.5 0.00 0.00 0.00 46 1014.4
20260508170720 20 359 4.8 4.8 0.00 0.00 0.00 46 1014.3
20260508170217 20 181 6.4 9.7 0.00 0.00 0.00 47 1014.6
20260508165714 19 194 12.9 14.5 0.00 0.00 0.00 47 1014.7
20260508165211 20 153 17.7 22.5 0.00 0.00 0.00 47 1014.8
20260508164708 20 262 3.2 3.2 0.00 0.00 0.00 50 1014.9
20260508164204 20 332 4.8 8.0 0.00 0.00 0.00 47 1015.1
20260508163702 20 56 3.2 3.2 0.00 0.00 0.00 53 1014.7
20260508163159 19 315 4.8 4.8 0.00 0.00 0.00 54 1015.2
20260508162655 19 204 11.3 12.9 0.00 0.00 0.00 51 1015.2
20260508162152 19 268 6.4 11.3 0.00 0.00 0.00 47 1015.4
20260508161649 18 190 12.9 16.1 0.00 0.00 0.00 48 1015.3
20260508161146 19 162 6.4 9.7 0.00 0.00 0.00 50 1015.5
20260508160645 18 215 8.0 9.7 0.00 0.00 0.00 49 1015.4
20260508160142 19 218 3.2 8.0 0.00 0.00 0.00 50 1015.3
20260508155639 19 0 4.8 8.0 0.00 0.00 0.00 48 1015.5
20260508155136 18 355 9.7 12.9 0.00 0.00 0.00 50 1015.6
20260508154633 18 289 6.4 9.7 0.00 0.00 0.00 50 1015.6
20260508154129 19 219 6.4 9.7 0.00 0.00 0.00 52 1015.7
20260508153626 18 352 1.6 3.2 0.00 0.00 0.00 52 1015.9
20260508153123 18 346 8.0 12.9 0.00 0.00 0.00 50 1016.1
20260508152620 18 8 1.6 1.6 0.00 0.00 0.00 50 1016.0
20260508152115 18 303 4.8 8.0 0.00 0.00 0.00 49 1016.0
20260508151613 18 267 6.4 9.7 0.00 0.00 0.00 50 1016.2
20260508151109 18 345 4.8 4.8 0.00 0.00 0.00 51 1016.1
20260508150607 18 282 8.0 11.3 0.00 0.00 0.00 52 1016.3
20260508145559 17 104 6.4 9.7 0.00 0.00 0.00 50 1016.4
20260508145055 17 57 4.8 4.8 0.00 0.00 0.00 51 1016.2
20260508144553 17 232 6.4 8.0 0.00 0.00 0.00 51 1016.5
20260508144050 17 219 4.8 4.8 0.00 0.00 0.00 51 1016.4
20260508143548 16 219 6.4 9.7 0.00 0.00 0.00 51 1016.2
20260508143044 17 197 8.0 9.7 0.00 0.00 0.00 52 1016.6
20260508142541 16 337 1.6 3.2 0.00 0.00 0.00 52 1016.1
20260508142038 16 239 8.0 11.3 0.00 0.00 0.00 50 1016.5
20260508141534 16 303 3.2 3.2 0.00 0.00 0.00 56 1016.4
20260508141032 16 272 11.3 12.9 0.00 0.00 0.00 50 1016.5
20260508140529 16 203 3.2 8.0 0.00 0.00 0.00 53 1016.6
20260508140025 16 5 4.8 4.8 0.00 0.00 0.00 54 1016.6
20260508135521 15 293 3.2 3.2 0.00 0.00 0.00 56 1016.8
20260508135018 15 0 4.8 9.7 0.00 0.00 0.00 58 1016.5
20260508134514 15 51 3.2 3.2 0.00 0.00 0.00 58 1016.7
20260508134012 14 126 4.8 4.8 0.00 0.00 0.00 60 1016.6
20260508133508 14 0 1.6 1.6 0.00 0.00 0.00 59 1016.6
20260508133005 13 241 6.4 8.0 0.00 0.00 0.00 60 1016.9
20260508132503 13 204 4.8 4.8 0.00 0.00 0.00 65 1016.6
20260508131959 12 169 4.8 4.8 0.00 0.00 0.00 63 1016.7
20260508131455 12 250 4.8 4.8 0.00 0.00 0.00 66 1016.8
20260508130952 12 354 1.6 1.6 0.00 0.00 0.00 67 1016.7
20260508130449 11 100 3.2 3.2 0.00 0.00 0.00 69 1016.8
20260508125944 11 59 1.6 1.6 0.00 0.00 0.00 71 1016.4
20260508125441 10 134 6.4 8.0 0.00 0.00 0.00 70 1016.5
20260508124939 10 235 4.8 4.8 0.00 0.00 0.00 71 1016.6
20260508124436 10 159 4.8 4.8 0.00 0.00 0.00 71 1016.6
20260508123934 9 179 4.8 4.8 0.00 0.00 0.00 73 1016.7
20260508123432 9 106 4.8 4.8 0.00 0.00 0.00 73 1016.6
20260508122928 8 208 3.2 4.8 0.00 0.00 0.00 75 1016.5
20260508122426 8 196 4.8 4.8 0.00 0.00 0.00 75 1016.4
20260508121923 8 147 4.8 4.8 0.00 0.00 0.00 76 1016.7
20260508121421 8 57 4.8 4.8 0.00 0.00 0.00 78 1016.5
20260508120918 7 178 4.8 4.8 0.00 0.00 0.00 79 1016.6
20260508120416 7 192 4.8 4.8 0.00 0.00 0.00 81 1016.6
20260508115913 6 287 4.8 4.8 0.00 0.00 0.00 84 1016.4
20260508115411 6 339 3.2 3.2 0.00 0.00 0.00 88 1016.5
20260508114907 6 188 3.2 3.2 0.00 0.00 0.00 90 1016.5
20260508114404 5 344 1.6 1.6 0.00 0.00 0.00 93 1016.4
20260508113901 5 22 1.6 1.6 0.00 0.00 0.00 95 1016.4
20260508113359 4 320 1.6 1.6 0.00 0.00 0.00 97 1016.4
20260508112855 3 35 3.2 3.2 0.00 0.00 0.00 98 1016.2
20260508112352 3 181 3.2 3.2 0.00 0.00 0.00 99 1016.4
20260508111849 3 78 0.0 0.0 0.00 0.00 0.00 99 1016.3
20260508111346 3 41 0.0 0.0 0.00 0.00 0.00 99 1016.2
20260508110843 3 10 0.0 0.0 0.00 0.00 0.00 99 1016.0
20260508110341 3 37 0.0 0.0 0.00 0.00 0.00 99 1016.3
20260508105840 3 341 0.0 0.0 0.00 0.00 0.00 99 1016.1
20260508105337 3 7 0.0 0.0 0.00 0.00 0.00 99 1016.1
20260508104834 3 84 0.0 0.0 0.00 0.00 0.00 99 1015.9
20260508104331 2 349 0.0 0.0 0.00 0.00 0.00 99 1016.0
20260508103828 2 352 0.0 0.0 0.00 0.00 0.00 99 1016.1
20260508103325 2 1 0.0 0.0 0.00 0.00 0.00 99 1015.9
20260508102823 2 1 0.0 0.0 0.00 0.00 0.00 99 1016.1
20260508102321 2 2 0.0 0.0 0.00 0.00 0.00 99 1016.2
20260508101818 2 354 0.0 0.0 0.00 0.00 0.00 99 1016.0
20260508101315 2 358 0.0 0.0 0.00 0.00 0.00 99 1016.0
20260508100813 2 354 0.0 0.0 0.00 0.00 0.00 99 1015.9
20260508100311 2 0 0.0 0.0 0.00 0.00 0.00 99 1016.0
20260508095806 2 1 0.0 0.0 0.00 0.00 0.00 99 1016.1
20260508095306 2 1 0.0 0.0 0.00 0.00 0.00 99 1016.2
20260508094801 2 358 0.0 0.0 0.00 0.00 0.00 99 1015.9
20260508094258 2 359 0.0 0.0 0.00 0.00 0.00 99 1016.1
20260508093755 2 0 0.0 0.0 0.00 0.00 0.00 99 1016.1
20260508093253 2 0 0.0 0.0 0.00 0.00 0.00 99 1016.0
20260508092749 2 358 0.0 0.0 0.00 0.00 0.00 99 1016.0
20260508092248 2 0 0.0 0.0 0.00 0.00 0.00 99 1016.0
20260508091746 2 0 0.0 0.0 0.00 0.00 0.00 99 1015.9
20260508091242 2 1 0.0 0.0 0.00 0.00 0.00 99 1015.7
20260508090740 2 359 0.0 0.0 0.00 0.00 0.00 99 1015.7
20260508090237 2 0 0.0 0.0 0.00 0.00 0.00 99 1015.8
20260508085733 2 358 0.0 0.0 0.00 0.00 0.00 98 1015.7
20260508085230 2 358 0.0 0.0 0.00 0.00 0.00 98 1015.9
20260508084726 2 359 0.0 0.0 0.00 0.00 0.00 98 1015.8
20260508084224 2 358 0.0 0.0 0.00 0.00 0.00 98 1015.8
20260508083721 2 359 0.0 0.0 0.00 0.00 0.00 98 1015.9
20260508083219 2 2 0.0 0.0 0.00 0.00 0.00 98 1015.8
20260508082713 2 2 0.0 0.0 0.00 0.00 0.00 98 1015.7
20260508082211 2 0 0.0 0.0 0.00 0.00 0.00 98 1015.8
20260508081709 2 355 0.0 0.0 0.00 0.00 0.00 98 1015.6
20260508081205 2 359 0.0 0.0 0.00 0.00 0.00 98 1015.7
20260508080702 2 359 0.0 0.0 0.00 0.00 0.00 99 1015.6
20260508080200 2 1 0.0 0.0 0.00 0.00 0.00 98 1015.8
20260508075656 2 358 0.0 0.0 0.00 0.00 0.00 98 1015.7
20260508075154 2 357 0.0 0.0 0.00 0.00 0.00 98 1015.6
20260508074651 3 358 0.0 0.0 0.00 0.00 0.00 98 1015.7
20260508074148 2 4 0.0 0.0 0.00 0.00 0.00 98 1015.7
20260508073645 2 358 0.0 0.0 0.00 0.00 0.00 98 1015.6
20260508073143 2 357 0.0 0.0 0.00 0.00 0.00 98 1015.6
20260508072638 2 358 0.0 0.0 0.00 0.00 0.00 98 1015.6
20260508072136 2 336 0.0 0.0 0.00 0.00 0.00 98 1015.7
20260508071633 3 4 0.0 0.0 0.00 0.00 0.00 98 1015.5
20260508071131 3 358 0.0 0.0 0.00 0.00 0.00 98 1015.6
20260508070629 3 13 0.0 0.0 0.00 0.00 0.00 97 1015.6
20260508070127 3 345 0.0 0.0 0.00 0.00 0.00 97 1015.9
20260508065624 3 353 0.0 1.6 0.00 0.00 0.00 98 1016.1
20260508065122 3 357 0.0 0.0 0.00 0.00 0.00 97 1016.1
20260508064619 3 358 0.0 0.0 0.00 0.00 0.00 98 1016.2
20260508064117 3 357 0.0 0.0 0.00 0.00 0.00 97 1016.2
20260508063614 3 358 0.0 0.0 0.00 0.00 0.00 97 1016.0
20260508063112 3 359 0.0 0.0 0.00 0.00 0.00 97 1016.1
20260508062609 3 358 0.0 0.0 0.00 0.00 0.00 97 1016.1
20260508062106 3 357 0.0 0.0 0.00 0.00 0.00 97 1016.3
20260508061604 3 0 0.0 0.0 0.00 0.00 0.00 97 1016.1
20260508061101 3 1 0.0 0.0 0.00 0.00 0.00 96 1016.4
20260508060557 3 1 0.0 0.0 0.00 0.00 0.00 96 1016.5
20260508060055 3 0 0.0 0.0 0.00 0.00 0.00 97 1016.5
20260508055550 3 359 0.0 0.0 0.00 0.00 0.00 96 1016.5
20260508055047 3 359 0.0 0.0 0.00 0.00 0.00 97 1016.4
20260508054543 4 7 0.0 0.0 0.00 0.00 0.00 97 1016.4
20260508054041 3 357 0.0 0.0 0.00 0.00 0.00 97 1016.4
20260508053537 3 3 0.0 0.0 0.00 0.00 0.00 97 1016.4
20260508053036 3 359 0.0 0.0 0.00 0.00 0.00 96 1016.4
20260508052533 3 0 0.0 0.0 0.00 0.00 0.00 96 1016.4
20260508052030 3 0 0.0 0.0 0.00 0.00 0.00 96 1016.1
20260508051526 3 0 0.0 0.0 0.00 0.00 0.00 96 1016.2
20260508051021 3 0 0.0 0.0 0.00 0.00 0.00 96 1016.2
20260508050518 3 0 0.0 0.0 0.00 0.00 0.00 96 1016.1
20260508050015 3 358 0.0 0.0 0.00 0.00 0.00 96 1016.2
20260508045512 3 358 0.0 0.0 0.00 0.00 0.00 96 1016.3
20260508045009 3 359 0.0 0.0 0.00 0.00 0.00 96 1016.3
20260508044506 3 355 0.0 0.0 0.00 0.00 0.00 96 1016.3
20260508044002 3 0 0.0 0.0 0.00 0.00 0.00 95 1016.5
20260508043459 3 0 0.0 0.0 0.00 0.00 0.00 95 1016.4
20260508042955 3 0 0.0 0.0 0.00 0.00 0.00 95 1016.3
20260508042453 3 0 0.0 0.0 0.00 0.00 0.00 95 1016.2
20260508041950 4 0 0.0 0.0 0.00 0.00 0.00 95 1016.2
20260508041446 3 353 0.0 0.0 0.00 0.00 0.00 95 1016.3
20260508040943 3 0 0.0 0.0 0.00 0.00 0.00 94 1016.2
20260508040440 4 0 0.0 0.0 0.00 0.00 0.00 94 1016.1
20260508035938 4 0 0.0 0.0 0.00 0.00 0.00 94 1016.2
20260508035435 4 3 0.0 0.0 0.00 0.00 0.00 94 1016.2
20260508034931 4 1 0.0 0.0 0.00 0.00 0.00 93 1016.2
20260508034429 4 1 0.0 0.0 0.00 0.00 0.00 93 1016.2
20260508033925 4 1 0.0 0.0 0.00 0.00 0.00 92 1016.3
20260508033424 4 1 0.0 0.0 0.00 0.00 0.00 92 1016.2
20260508032921 4 1 0.0 0.0 0.00 0.00 0.00 92 1016.1
20260508032418 5 2 0.0 0.0 0.00 0.00 0.00 92 1016.1
20260508031915 4 0 0.0 0.0 0.00 0.00 0.00 92 1016.4
20260508031412 4 0 0.0 0.0 0.00 0.00 0.00 91 1016.4
20260508030908 5 0 0.0 0.0 0.00 0.00 0.00 91 1016.4
20260508030405 4 0 0.0 0.0 0.00 0.00 0.00 91 1016.2
20260508025902 4 0 0.0 0.0 0.00 0.00 0.00 90 1016.1
20260508025358 5 0 0.0 0.0 0.00 0.00 0.00 90 1016.1
20260508024855 5 0 0.0 0.0 0.00 0.00 0.00 89 1016.3
20260508024352 5 0 0.0 0.0 0.00 0.00 0.00 89 1016.5
20260508023849 5 0 0.0 0.0 0.00 0.00 0.00 89 1016.1
20260508023346 5 0 0.0 0.0 0.00 0.00 0.00 89 1015.9
20260508022843 5 0 0.0 0.0 0.00 0.00 0.00 88 1016.1
20260508022338 5 0 0.0 0.0 0.00 0.00 0.00 87 1016.1
20260508021836 5 0 0.0 0.0 0.00 0.00 0.00 87 1016.1
20260508021332 5 0 0.0 0.0 0.00 0.00 0.00 86 1016.1
20260508020827 5 0 0.0 0.0 0.00 0.00 0.00 86 1016.1
20260508020325 5 0 0.0 0.0 0.00 0.00 0.00 86 1016.2
20260508015822 6 0 0.0 0.0 0.00 0.00 0.00 85 1016.1
20260508015320 6 0 0.0 0.0 0.00 0.00 0.00 85 1016.0
20260508014816 6 0 0.0 0.0 0.00 0.00 0.00 84 1015.9
20260508014314 6 0 0.0 0.0 0.00 0.00 0.00 83 1015.9
20260508013809 7 0 0.0 0.0 0.00 0.00 0.00 81 1016.0
20260508013306 7 0 0.0 0.0 0.00 0.00 0.00 80 1016.0
20260508012803 7 0 0.0 0.0 0.00 0.00 0.00 79 1015.9
20260508012300 8 358 0.0 0.0 0.00 0.00 0.00 78 1015.9
20260508011758 8 2 0.0 0.0 0.00 0.00 0.00 76 1015.8
20260508011255 8 1 0.0 0.0 0.00 0.00 0.00 72 1015.8
20260508010752 8 359 0.0 0.0 0.00 0.00 0.00 68 1015.7
20260508010250 9 359 0.0 0.0 0.00 0.00 0.00 66 1015.8
20260508005747 10 359 0.0 0.0 0.00 0.00 0.00 65 1015.5
20260508005243 10 359 0.0 0.0 0.00 0.00 0.00 65 1015.8
20260508004739 10 359 0.0 0.0 0.00 0.00 0.00 66 1015.6
20260508004235 10 359 0.0 0.0 0.00 0.00 0.00 65 1015.5
20260508003732 11 358 0.0 0.0 0.00 0.00 0.00 63 1015.5
20260508003230 11 358 0.0 0.0 0.00 0.00 0.00 62 1015.5
20260508002726 11 358 0.0 0.0 0.00 0.00 0.00 61 1015.3
20260508002224 11 354 0.0 0.0 0.00 0.00 0.00 59 1015.4
20260508001719 11 1 0.0 0.0 0.00 0.00 0.00 59 1015.4
20260508001215 12 1 0.0 0.0 0.00 0.00 0.00 60 1015.3
20260508000711 12 348 0.0 0.0 0.00 0.00 0.00 56 1015.3
20260508000209 12 357 0.0 0.0 0.00 0.00 0.00 55 1015.2
20260507235705 13 358 0.0 0.0 0.00 0.00 0.00 50 1015.1
20260507235202 14 356 0.0 0.0 0.00 0.00 0.00 51 1015.0
20260507234659 14 356 0.0 0.0 0.00 0.00 0.00 47 1015.2
20260507234155 15 351 1.6 1.6 0.00 0.00 0.00 41 1015.1
20260507233652 15 349 1.6 1.6 0.00 0.00 0.00 41 1015.0
20260507233151 15 359 1.6 3.2 0.00 0.00 0.00 41 1015.2
20260507232648 16 349 1.6 3.2 0.00 0.00 0.00 41 1015.1
20260507232145 16 338 1.6 1.6 0.00 0.00 0.00 39 1015.0
20260507231641 16 356 0.0 1.6 0.00 0.00 0.00 40 1015.1
20260507231138 16 338 0.0 1.6 0.00 0.00 0.00 38 1015.0
20260507230634 16 340 8.0 9.7 0.00 0.00 0.00 37 1015.0
20260507230132 16 344 0.0 0.0 0.00 0.00 0.00 42 1014.9
20260507225632 15 346 1.6 1.6 0.00 0.00 0.00 41 1015.2
20260507225129 16 330 8.0 11.3 0.00 0.00 0.00 39 1015.2
20260507224624 15 346 1.6 1.6 0.00 0.00 0.00 38 1015.1
20260507224121 16 12 6.4 8.0 0.00 0.00 0.00 37 1015.1
20260507223617 16 12 4.8 8.0 0.00 0.00 0.00 38 1015.1
20260507223114 16 319 4.8 8.0 0.00 0.00 0.00 38 1015.0
20260507222611 16 303 3.2 4.8 0.00 0.00 0.00 40 1015.1
20260507222108 16 346 8.0 9.7 0.00 0.00 0.00 37 1015.0
20260507221603 16 7 3.2 8.0 0.00 0.00 0.00 38 1014.8
20260507221101 16 292 3.2 3.2 0.00 0.00 0.00 39 1015.2